User: anonymous   Login
Location: Beuerbach
(48.1459°N, 10.9174°E)
Time: 07:59:58
(UTC+00:00)
Language:

Cosmos 1455 - Orbit

View from above orbital plane
View from above orbital plane
View from above satellite
View from above satellite

Ground track
Ground track

The orbit data is extracted from the following two-line orbital elements,

1 14032U 83037A   24202.95088604  .00024962  00000-0  64446-3 0  9991
2 14032  82.5051  32.8681 0010016 223.4894 136.5562 15.38957101254943
Epoch (UTC): 20 July 2024 22:49:16
Eccentricity: 0.0010016
inclination: 82.5051°
perigee height: 442 km
apogee height: 456 km
right ascension of ascending node: 32.8681°
argument of perigee: 223.4894°
revolutions per day: 15.38957101
mean anomaly at epoch: 136.5562°
orbit number at epoch: 25494

The dashed part of the orbit path shows where the satellite is in the earth's shadow,  

DLR